Aurora, IL

12:29 PM CST on November 17, 2017 (GMT -0600)
Aurora Municipal

Weather History for KARR - January, 2014

Change the Weather History Date:

Saturday, January 11, 2014

  Actual Average Record
Temperature  
Mean Temperature 33 °F 21 °F  
Max Temperature 34 °F 29 °F 55 °F (2012)
Min Temperature 32 °F 13 °F -5 °F (1999)
Degree Days  
Heating Degree Days 32 44  
Month to date heating degree days 469 482  
Since 1 July heating degree days 3298 3131  
Cooling Degree Days 0 0  
Month to date cooling degree days 0 0  
Year to date cooling degree days 0 0  
Moisture  
Dew Point 29 °F    
Average Humidity 89    
Maximum Humidity 100    
Minimum Humidity 78    
Precipitation  
Precipitation 0.01 in 0.04 in 0.32 in (2017)
Month to date precipitation 0.78 0.45  
Year to date precipitation 0.78 0.45  
Sea Level Pressure  
Sea Level Pressure 29.54 in    
Wind  
Wind Speed 15 mph (West)    
Max Wind Speed 21 mph    
Max Gust Speed 30 mph    
Visibility 4 miles    
Events Fog    
T = Trace of Precipitation, MM = Missing Value Source: NWS Daily Summary

Daily Weather History Graph

Daily Weather History Graph

Search for Another Location

Airport or City:

Trip Planner

Search our weather history database for the weather conditions in past years. The results will help you decide how hot, cold, wet, or windy it might be!

Date:

Astronomy

Jan. 11, 2014 Rise Set
Actual Time 7:20 AM CST 4:43 PM CST
Civil Twilight 6:49 AM CST 5:14 PM CST
Nautical Twilight 6:14 AM CST 5:49 PM CST
Astronomical Twilight 5:41 AM CST 6:22 PM CST
Moon 1:28 PM CST (1/11) 3:24 AM CST (1/11)
Length of Visible Light 10h 25m
Length of Day
9h 23m
Waxing Gibbous, 83% of the Moon is Illuminated
Jan 11
Waxing Gibbous
Jan 15
Full
Jan 23
Last Quarter
Jan 30
New
Feb 6
First Quarter

Hourly Weather History & Observations

Time (CST) Temp. Windchill Dew Point Humidity Pressure Visibility Wind Dir Wind Speed Gust Speed Precip Events Conditions
12:10 AM - - - N/A% 29.49 in 0.5 mi South 4.6 mph - N/A Fog Fog
12:52 AM - - - N/A% 29.48 in 0.5 mi SSW 9.2 mph - N/A Fog Fog
1:52 AM - - - N/A% 29.45 in 0.2 mi SSW 8.1 mph - 0.01 in Fog Fog
2:52 AM - - - N/A% 29.44 in 0.2 mi SW 5.8 mph - 0.00 in Fog Fog
3:24 AM - - - N/A% 29.44 in 0.2 mi SW 6.9 mph - N/A Fog Fog
3:45 AM - - - N/A% 29.44 in 0.2 mi SW 6.9 mph - N/A Fog Fog
3:52 AM - - - N/A% 29.44 in 0.2 mi WSW 6.9 mph - N/A Fog Fog
4:40 AM - - - N/A% 29.43 in 0.5 mi West 11.5 mph - N/A Fog Fog
4:52 AM - - - N/A% 29.43 in 0.5 mi West 10.4 mph - N/A Fog Fog
5:35 AM - - - N/A% 29.43 in 0.2 mi West 9.2 mph - N/A Fog Fog
5:52 AM - - - N/A% 29.44 in 0.5 mi West 10.4 mph - N/A Fog Fog
6:05 AM - - - N/A% 29.45 in 2.5 mi West 13.8 mph - N/A   Overcast
6:13 AM - - - N/A% 29.45 in 4.0 mi West 15.0 mph - N/A   Haze
6:52 AM - - - N/A% 29.45 in 4.0 mi West 16.1 mph - N/A   Haze
7:17 AM - - - N/A% 29.46 in 4.0 mi West 16.1 mph - N/A   Haze
7:52 AM - - - N/A% 29.47 in 2.0 mi West 16.1 mph - N/A   Overcast
8:27 AM - - - N/A% 29.48 in 3.0 mi West 17.3 mph - N/A   Overcast
8:52 AM - - - N/A% 29.50 in 4.0 mi West 15.0 mph - N/A   Haze
9:43 AM 34.0 °F 24.6 °F 30.9 °F 89% 29.51 in 5.0 mi West 13.8 mph - N/A   Overcast
9:52 AM 34.0 °F 25.0 °F 30.9 °F 89% 29.54 in 4.0 mi West 12.7 mph - N/A   Overcast
10:01 AM - - - N/A% 29.52 in 4.0 mi West 17.3 mph - N/A   Haze
10:52 AM 34.0 °F 23.0 °F 33.1 °F 96% 29.52 in 5.0 mi West 18.4 mph - N/A   Overcast
11:52 AM 34.0 °F 22.7 °F 30.0 °F 85% 29.52 in 6.0 mi West 19.6 mph - N/A   Overcast
12:06 PM - - - N/A% 29.52 in 6.0 mi West 16.1 mph - N/A   Haze
12:52 PM - - - N/A% 29.52 in 5.0 mi West 19.6 mph - N/A   Haze
1:25 PM 33.8 °F 22.5 °F 28.4 °F 81% 29.52 in 5.0 mi West 19.6 mph - N/A   Haze
1:27 PM 33.8 °F 22.5 °F 28.4 °F 81% 29.52 in 5.0 mi West 19.6 mph - N/A   Haze
1:52 PM 34.0 °F 23.4 °F 28.9 °F 82% 29.53 in 4.0 mi West 17.3 mph - N/A   Haze
2:52 PM 33.1 °F 23.0 °F 28.9 °F 85% 29.56 in 5.0 mi West 15.0 mph - N/A   Overcast
3:52 PM 34.0 °F 23.8 °F 28.9 °F 82% 29.58 in 4.0 mi WSW 16.1 mph - N/A   Haze
4:52 PM 34.0 °F 23.0 °F 28.9 °F 82% 29.62 in 7.0 mi West 18.4 mph - N/A   Overcast
5:52 PM 33.1 °F 21.2 °F 28.0 °F 82% 29.65 in 8.0 mi West 20.7 mph - N/A   Overcast
6:52 PM 32.0 °F 21.6 °F 28.0 °F 85% 29.68 in 9.0 mi WNW 15.0 mph - N/A   Overcast
7:52 PM 32.0 °F 20.8 °F 28.0 °F 85% 29.71 in 7.0 mi West 17.3 mph - N/A   Overcast
8:52 PM 32.0 °F 20.8 °F 27.0 °F 82% 29.75 in 8.0 mi West 17.3 mph - N/A   Overcast
9:52 PM - - - N/A% 29.76 in 8.0 mi WNW 15.0 mph - N/A   Overcast
10:15 PM - - - N/A% 29.78 in 8.0 mi West 17.3 mph - N/A   Overcast
10:52 PM - - - N/A% 29.78 in 8.0 mi WNW 16.1 mph - N/A   Overcast
11:52 PM - - - N/A% 29.79 in 8.0 mi West 15.0 mph - N/A   Overcast